Location: Hopville
(44.8032°N, 123.1329°W)
Time: 04:43:00
(UTC+00:00)

Cosmos 2369 Rocket - Pass Details

Date: 24 January 2021
Orbit: 830 x 851 km, 71.0° (Epoch: 26 February)

Event Time Altitude Azimuth Distance (km) Brightness Sun altitude
Exits shadow 14:13:57 - 340° (NNW) 3,238 4.9 -15.2°
Reaches altitude 10° 14:16:08 10° 347° (NNW) 2,451 4.4 -14.8°
Maximum altitude 14:21:24 40° 56° (NE) 1,214 3.4 -13.9°
Drops below altitude 10° 14:26:37 10° 125° (SE) 2,432 5.8 -13.0°
Sets 14:29:12 0° 133° (SE) 3,362 6.5 -12.5°
